Tracking 28096 objects as of 28-Sep-2023
HD Live streaming from Space Station
objects crossing your sky now

STARLINK-3505

Track STARLINK-3505 now!
10-day predictions
STARLINK-3505 is classified as:


NORAD ID: 51750
Int'l Code: 2022-016AN
Perigee: 545.7 km
Apogee: 548.0 km
Inclination: 53.2 °
Period: 95.4 minutes
Semi major axis: 6917 km
RCS: Unknown
Launch date: February 21, 2022
Source: United States (US)
Launch site: AIR FORCE EASTERN TEST RANGE (AFETR)
Your satellite tracking list
Your tracking list is empty




NASA's NSSDC Master Catalog

Two Line Element Set (TLE):
1 51750U 22016AN  23271.52072185  .00002530  00000-0  17701-3 0  9993
2 51750  53.2174 358.7251 0001672  49.2308 310.8829 15.08838599 89986
Source of the keplerian elements: AFSPC